星链-36722(STARLINK-36722)

导读

STARLINK-36722是美国SpaceX公司星链(Starlink)卫星互联网星座的一员,于2026年2月22日发射升空。星链项目旨在通过构建近地轨道卫星星座,为全球尤其是缺乏传统基础设施的偏远地区提供高速、低延迟的宽带互联网接入服务,帮助实现全球网络覆盖互联互通。该卫星将和其他星链卫星组网,进一步扩大星座服务范围与容量,助力星链系统性能提升。

Basic Information
目录编号:
67917
目录名称:
STARLINK-36722
国际标识:
2026-036P
轨道中心:
EARTH
卫星名称:
星链-36722
卫星全名:
星链-36722(STARLINK-36722)
卫星状态:
在轨 (已飞行194 天)
发射日期:
2026-02-22 UTC
国别 :
美国 (US)
星等 :
--
Orbit Information
数据来源 国际轨道数据
星历时间: 2026-09-03T14:23:01+0800
1天前
查看轨道信息
半长轴: 6861.149km
偏心率: 0.0001488
轨道倾角: 43.004°
近地点辐角 254.318°
升交点赤经 322.085°
平近点角 105.751°
近地点: 481.991km
远地点: 484.033km
周期: 94.266分钟
每日圈数: 15.275927
Detailed Information
固有亮度:
5
最大亮度:
2.5
卫星平台:
Starlink V1.0
覆盖范围:
全球
运营商:
太空探索技术公司
运营商所在国:
美国
制造商(研发单位):
太空探索技术公司
制造商所在国:
美国
使用方式:
暂无
Satellite Introduction
Starlink 计划是 SpaceX 推出的全球卫星互联网项目,通过发射低轨道卫星,为全球尤其是偏远地区提供高速、低延迟的互联网服务。自 2019 年起,Starlink 已部署数千颗卫星,旨在缩小全球数字鸿沟,推动互联网普及。该项目还为军事、航空等行业提供通信支持,带来广泛经济效益。
2D Orbit Map
3D Orbit Map
Orbit Altitude Analysis Chart
Orbit Inclination Analysis Chart
Orbit Comprehensive Analysis Chart
View Comprehensive Chart
Conjunction Data List
Event ID Objects TCA Miss Dist (km) Collision Risk Probability Collision Risk Index (CRI) Action
CDM_260829-112005-933106-791722
2026-08-29T
11:20:10+0000
0.149 km
中距离
7.506152E-4 高风险 0.93
CDM_260905-120305-652906-791721
2026-09-05T
12:03:21+0000
0.420 km
远距离
1.421139E-4 高风险 0.78
CDM_260904-032005-549706-791723
2026-09-04T
03:20:32+0000
0.646 km
远距离
6.985826E-5 中风险 0.72
CDM_260829-094105-613806-791721
2026-08-29T
09:41:18+0000
0.680 km
远距离
6.100859E-5 中风险 0.71
CDM_260904-043805-933106-791721
2026-09-04T
04:38:52+0000
0.673 km
远距离
4.689378E-5 中风险 0.68
CDM_260904-164005-549706-791722
2026-09-04T
16:40:50+0000
0.811 km
远距离
3.456999E-5 中风险 0.66
CDM_260829-060605-549706-791721
2026-08-29T
06:06:28+0000
0.965 km
远距离
1.932113E-5 中风险 0.61
CDM_260905-080705-652906-791721
2026-09-05T
08:07:59+0000
0.889 km
远距离
1.591078E-5 中风险 0.59
CDM_260904-014605-549706-791723
2026-09-04T
01:46:22+0000
1.141 km
极远距离
1.081245E-5 中风险 0.56
CDM_260829-074005-549706-791721
2026-08-29T
07:40:37+0000
1.245 km
极远距离
8.000034E-6 低风险 0.53